Terug naar catalogus

OPS 4682 DEB

ActiefPO
NORAD 38414·DEBRIS·🇺🇸 United States

Gelanceerd Apr 3, 1965 vanaf Vandenberg Space Force Base

Loading…

Volgende Passages (komende 24 uur)

TLE

VerouderendSource: Space-Track

Epoch: Sep 8, 2026, 01:00 UTC

1 38414U 65027DT  26251.04220521  .00000724  00000-0  24402-2 0  9999
2 38414  90.2373 354.1592 0038478 246.7195 112.9874 12.98118567151556

Volg OPS 4682 DEB in realtime met AllMySat

Download on the App Store